Hourly Data Report for July 03, 2021

TORONTO CITY
ONTARIO
Current Station Operator: ECCC - MSC

43°40'00.000" N
79°24'00.000" W
112.50 m
6158355
71508
XTO

Download Data

Hourly Data (July 2021)
Hourly Data Report for July 3, 2021
TIME
LST
Temp Definition
°C
Dew Point Definition
°C
Rel Hum Definition
%
Precip. Amount Definition
mm

Wind Dir Definition
10's deg

Wind Spd Definition
km/h
Visibility Definition
km
Stn Press Definition
kPa
Hmdx Definition


Wind Chill Definition


Weather Definition


00:00 17.4 13.8 80 0.0       99.83     LegendNANA
01:00 17.5 12.8 74 0.0       99.81     LegendNANA
02:00 17.1 12.5 74 0.0       99.78     LegendNANA
03:00 16.8 13.0 78 0.0       99.80     LegendNANA
04:00 16.0 13.0 83 0.0       99.79     LegendNANA
05:00 15.9 12.9 82 0.0       99.83     LegendNANA
06:00 16.5 13.8 84 0.0       99.81     LegendNANA
07:00 18.1 14.2 78 0.0       99.86     LegendNANA
08:00 19.9 14.8 73 0.0       99.89     LegendNANA
09:00 20.9 14.4 66 0.0       99.85 25   LegendNANA
10:00 21.3 14.5 65 0.0       99.85 25   LegendNANA
11:00 21.5 14.9 66 0.0       99.81 25   LegendNANA
12:00 21.4 14.0 63 0.0       99.76 25   LegendNANA
13:00 22.7 14.1 59 0.0       99.69 26   LegendNANA
14:00 22.0 14.1 61 0.0       99.66 25   LegendNANA
15:00 22.5 14.7 61 0.0       99.60 26   LegendNANA
16:00 23.2 14.2 57 0.0       99.56 27   LegendNANA
17:00 24.5 14.5 54 0.0       99.54 28   LegendNANA
18:00 23.9 13.5 52 0.0       99.55 27   LegendNANA
19:00 22.9 13.6 56 0.0       99.56 26   LegendNANA
20:00 21.1 13.7 62 0.0       99.59     LegendNANA
21:00 20.5 13.1 62 0.0       99.66     LegendNANA
22:00 21.1 13.4 61 0.0       99.65     LegendNANA
23:00 20.0 14.8 72 0.0       99.67     LegendNANA

Notes on Data Quality.

Legend

  • E = Estimated
  • M = Missing
  • NA = Not Available*
  • [empty] = Indicates an unobserved value
Date modified: